Regional Weather Roundup
Issued by NWS

Home | Current Version | Previous Version | Text Only | Print | Product List | Glossary Off
Versions: 1 2 3 4 5 6 7 8 9 10 11 12 13 14 15 16 17 18 19 20 21 22 23 24 25 26 27 28 29 30 31 32 33 34 35 36 37 38 39 40 41 42 43 44 45 46 47 48 49 50

000
ASUS43 KMKX 220321
RWRWI

WISCONSIN REGIONAL WEATHER ROUNDUP
NATIONAL WEATHER SERVICE MILWAUKEE/SULLIVAN WI
1000 PM CDT FRI JUL 21 2017

NOTE: "FAIR" INDICATES FEW OR NO CLOUDS BELOW 12,000 FEET WITH NO
SIGNIFICANT WEATHER AND/OR OBSTRUCTIONS TO VISIBILITY.

WIZ001-002-006>008-014>016-023>028-220400-
NORTHWEST WISCONSIN

CITY           SKY/WX    TMP DP  RH WIND       PRES   REMARKS
SUPERIOR ARPT  NOT AVBL
ASHLAND        TSTM      61  60  97 NE7       29.90R FOG
HAYWARD        TSTM      65  63  93 N8        29.94R FOG
SIREN          LGT RAIN  66  64  94 NE3       29.93F
CUMBERLAND     CLOUDY    70  66  88 N21       29.95R
RICE LAKE      CLOUDY    72  67  85 CALM      29.92R
CHETEK         CLOUDY    72  67  86 CALM      29.91R
LADYSMITH      CLOUDY    71  66  84 SW3       29.92S
EAU CLAIRE     MOCLDY    72  66  81 CALM      29.88R
MENOMONIE      CLOUDY    72  68  88 E3        29.90R
NEW RICHMOND   CLOUDY    72  66  81 E3        29.90R
OSCEOLA        CLOUDY    74  67  80 SE3       29.92R
$$

WIZ003>005-009-010-017-018-220400-
NORTH CENTRAL WISCONSIN

CITY           SKY/WX    TMP DP  RH WIND       PRES   REMARKS
MANITOWISH WTR CLOUDY    72  71  96 SW6       29.92R
ARBOR VITAE    PTCLDY    72  67  84 SW5       29.91S
WOODRUFF       PTCLDY    72  67  84 SW5       29.91S
RHINELANDER    CLOUDY    70  64  81 S8        29.93S
EAGLE RIVER    CLOUDY    71  64  79 S3        29.92S
LAND O LAKES   CLOUDY    72  64  77 S6        29.93S
PHILLIPS       CLOUDY    68  66  92 CALM      29.92R
TOMAHAWK         N/A     69  61  76 CALM      29.92F
MEDFORD        PTCLDY    66  65  96 CALM      29.91S
MERRILL        CLOUDY    69  66  89 CALM      29.92F
$$

WIZ029-030-035-036-043>047-220400-
CENTRAL WISCONSIN

CITY           SKY/WX    TMP DP  RH WIND       PRES   REMARKS
WAUSAU         CLOUDY    67  65  93 CALM      29.89F
MOSINEE        MOCLDY    64  64 100 CALM      29.92S
MARSHFIELD     CLOUDY    68  65  90 SW3       29.90S
STEVENS POINT  CLOUDY    67  66  97 CALM      29.90F
WAUPACA        CLOUDY    71  62  74 S3        29.90S
WAUTOMA        CLOUDY    68  66  93 CALM      29.91R
WISC RAPIDS    CLOUDY    70  69  97 NE3       29.91S
CAMP DOUGLAS   CLOUDY    70  70 100 CALM      29.89R
$$

WIZ011>013-019>022-031-037>040-048>050-220400-
NORTHEAST WISCONSIN

CITY           SKY/WX    TMP DP  RH WIND       PRES   REMARKS
ANTIGO         CLOUDY    65  61  86 CALM      29.92F
SHAWANO        CLOUDY    72  64  75 CALM      29.89F
OCONTO         CLOUDY    71  67  87 CALM      29.89F
STURGEON BAY     N/A     73  70  90 CALM      29.89
GREEN BAY      LGT RAIN  72  66  81 CALM      29.89F
MANITOWOC      CLOUDY    73  63  70 S5        29.90S
APPLETON       MOCLDY    72  55  56 VRB3      29.89S
CLINTONVILLE   CLOUDY    70  61  73 S3        29.89F
OSHKOSH        CLOUDY    69  64  84 CALM      29.89S
$$

WIZ032>034-041-042-053>061-220400-
SOUTHWEST WISCONSIN

CITY           SKY/WX    TMP DP  RH WIND       PRES   REMARKS
LA CROSSE      LGT RAIN  73  70  90 NE3       29.86R
SPARTA         CLOUDY    67  66  99 E3        29.87F
VIROQUA        CLOUDY    70  70 100 E7        29.87F
BOSCOBEL       CLOUDY    72  71  97 VRB6      29.82F
PRAIRIE DU CHI CLOUDY    71  69  95 CALM      29.80S
PLATTEVILLE    CLOUDY    72  72 100 SE8       29.83S
$$

WIZ056-057-062-063-064-067-068-220400-
SOUTH CENTRAL WISCONSIN

CITY           SKY/WX    TMP DP  RH WIND       PRES   REMARKS
REEDSBURG      HVY RAIN  69  69 100 E5        29.87S
BARABOO/DELLS  LGT RAIN  69  67  94 NE3       29.89R
LONE ROCK      CLOUDY    72  70  93 E10       29.84S
MINERAL POINT  CLOUDY    72  72 100 E13       29.83F
MADISON        LGT RAIN  68  66  93 SE13      29.85F
MIDDLETON      CLOUDY    71  71 100 E8        29.86S
WATERTOWN      CLOUDY    66  66 100 CALM      29.89R
MONROE         CLOUDY    72  70  94 SE7       29.84F
JANESVILLE     RAIN      72  72 100 CALM      29.87F
$$

WIZ051-052-058>065-066-070>072-220400-
SOUTHEAST WISCONSIN

CITY           SKY/WX    TMP DP  RH WIND       PRES   REMARKS
MILWAUKEE      RAIN      69  62  78 SE14      29.89F
WAUKESHA       NOT AVBL
MILWAUKEE/TIMM RAIN      66  61  82 E3        29.91R
RACINE         CLOUDY    71  70  96 CALM      29.92R FOG
KENOSHA        RAIN      71  69  93 NE8       29.91R FOG
FOND DU LAC    CLOUDY    70  63  78 S10       29.90R
SHEBOYGAN      RAIN      63  62  97 SW5       29.92R FOG
WEST BEND      HVY RAIN  64  64 100 CALM      29.92R
JUNEAU         RAIN      65  63  91 E10       29.90S
$$

LSZ147-162-220400-
LAKE SUPERIOR

STATION/POSITION TIME  TEMP    WIND        PRES    WAVE
                       AIR SEA DIR/SP/G            HT/PER
                 (UTC) (F)     (DEG/KT/KT) (MB)    (FT/S)
W MID LAKE BUOY  0250   54 48  110/ 10/ 10 1010.3F   1
DEVILS ISLAND    0300   59     190/ 14/ 17 1011.0F
SAXON HARBOR     0240   69     310/ 11/ 13 1012.2R
$$

LMZ867-665-643>646-220400-
LAKE MICHIGAN

STATION/POSITION TIME  TEMP    WIND        PRES    WAVE
                       AIR SEA DIR/SP/G            HT/PER
                 (UTC) (F)     (DEG/KT/KT) (MB)    (FT/S)
CHAMBERS ISLAND  0230   75     170/  2/  4 1012.2R
S GREEN BAY BUOY 0300   76 76  210/  4/  4 1012.2
N MID LAKE BUOY  0250   69 67  170/  8/  8 1013.2F   1
NORTHPORT PIER   0240   72     200/  3/  5 1012.5S
KEWAUNEE LAKESHO 0300   74      CALM  /  3 1011.7
SHEBOYGAN LAKESH 0300   66     200/  8/  9 1012.3R
PORT WASHINGTON  0230   70     240/  2/  3 1012.9F
ATWATER BUOY     0209   71 68  190/  4/  6 1012.9R
MILWAUKEE LAKESH 0300   69     160/ 10/ 12   N/A
S MID LAKE BUOY  0250   72 71  110/  8/ 12 1012.2R   0
KENOSHA   LAKESH 0300   71      90/  3/  4 1012.5
$$

TC  - TEMPERATURE IN CELSIUS
VSB - VISIBILITY IN STATUTE MILES
WCI - WIND CHILL INDEX
HX  - HEAT INDEX




USA.gov is the U.S. government's official web portal to all federal, state and local government web resources and services.